Tracking 28790 objects as of 19-Apr-2024
HD Live streaming from Space Station
objects crossing your sky now

COSMOS 2251 DEB

Track COSMOS 2251 DEB now!
10-day predictions


NORAD ID: 38004
Int'l Code: 1993-036BRF
Perigee: 664.1 km
Apogee: 690.3 km
Inclination: 74.0 °
Period: 98.1 minutes
Semi major axis: 7048 km
RCS: 0.0079 m2 (small)
Launch date: June 16, 1993
Source: Commonwealth of Independent States (former USSR) (CIS)
Launch site: PLESETSK MISSILE AND SPACE COMPLEX (PKMTR)

Note: This is SATELLITE DEBRIS
Your satellite tracking list
Your tracking list is empty




NASA's NSSDC Master Catalog

Two Line Element Set (TLE):
1 38004U 93036BRF 24107.77785927  .00024513  00000-0  43342-2 0  9995
2 38004  74.0311 142.8998 0018644 313.2222  46.7389 14.67185597767732
Source of the keplerian elements: AFSPC